owner,sensor,date,latitude,longitude,vertical_datum,sea_water_temperature,qcFlag 
DISL,ioos:station:DISL:BSCA:1,2019-05-01T00:30:00Z,30.3288,-87.8293,0.0,24.5,11111222 
DISL,ioos:station:DISL:BSCA:1,2019-05-01T01:30:00Z,30.3288,-87.8293,0.0,24.48,11111222 
DISL,ioos:station:DISL:BSCA:1,2019-05-01T02:30:00Z,30.3288,-87.8293,0.0,24.39,11111222 
DISL,ioos:station:DISL:BSCA:1,2019-05-01T03:30:00Z,30.3288,-87.8293,0.0,24.28,11111222 
DISL,ioos:station:DISL:BSCA:1,2019-05-01T04:30:00Z,30.3288,-87.8293,0.0,24.25,11111222 
DISL,ioos:station:DISL:BSCA:1,2019-05-01T06:00:00Z,30.3288,-87.8293,0.0,24.24,11111222 
DISL,ioos:station:DISL:BSCA:1,2019-05-01T06:30:00Z,30.3288,-87.8293,0.0,24.17,11111222 
DISL,ioos:station:DISL:BSCA:1,2019-05-01T07:30:00Z,30.3288,-87.8293,0.0,24.1,11111222 
DISL,ioos:station:DISL:BSCA:1,2019-05-01T08:30:00Z,30.3288,-87.8293,0.0,24.1,11111222 
DISL,ioos:station:DISL:BSCA:1,2019-05-01T09:30:00Z,30.3288,-87.8293,0.0,24.06,11111222 
DISL,ioos:station:DISL:BSCA:1,2019-05-01T10:30:00Z,30.3288,-87.8293,0.0,23.95,11111222 
DISL,ioos:station:DISL:BSCA:1,2019-05-01T11:30:00Z,30.3288,-87.8293,0.0,23.85,11111222 
DISL,ioos:station:DISL:BSCA:1,2019-05-01T12:30:00Z,30.3288,-87.8293,0.0,23.63,11111222 
DISL,ioos:station:DISL:BSCA:1,2019-05-01T13:30:00Z,30.3288,-87.8293,0.0,23.9,11111222 
DISL,ioos:station:DISL:BSCA:1,2019-05-01T14:30:00Z,30.3288,-87.8293,0.0,24.05,11111222 
DISL,ioos:station:DISL:BSCA:1,2019-05-01T15:30:00Z,30.3288,-87.8293,0.0,24.24,11111222 
DISL,ioos:station:DISL:BSCA:1,2019-05-01T16:30:00Z,30.3288,-87.8293,0.0,24.26,11111222 
DISL,ioos:station:DISL:BSCA:1,2019-05-01T17:30:00Z,30.3288,-87.8293,0.0,24.26,11111222 
DISL,ioos:station:DISL:BSCA:1,2019-05-01T18:30:00Z,30.3288,-87.8293,0.0,24.79,11111222 
DISL,ioos:station:DISL:BSCA:1,2019-05-01T19:30:00Z,30.3288,-87.8293,0.0,25.37,11111222 
DISL,ioos:station:DISL:BSCA:1,2019-05-01T20:30:00Z,30.3288,-87.8293,0.0,25.55,11111222 
DISL,ioos:station:DISL:BSCA:1,2019-05-01T21:30:00Z,30.3288,-87.8293,0.0,25.84,11111222 
DISL,ioos:station:DISL:BSCA:1,2019-05-01T22:30:00Z,30.3288,-87.8293,0.0,25.86,11111222 
DISL,ioos:station:DISL:BSCA:1,2019-05-01T23:30:00Z,30.3288,-87.8293,0.0,25.82,11111222 
DISL,ioos:station:DISL:BSCA:1,2019-05-02T00:30:00Z,30.3288,-87.8293,0.0,25.65,11111222 
DISL,ioos:station:DISL:BSCA:1,2019-05-02T01:30:00Z,30.3288,-87.8293,0.0,25.26,11111222 
DISL,ioos:station:DISL:BSCA:1,2019-05-02T02:30:00Z,30.3288,-87.8293,0.0,25.19,11111222 
DISL,ioos:station:DISL:BSCA:1,2019-05-02T03:30:00Z,30.3288,-87.8293,0.0,25.18,11111222 
DISL,ioos:station:DISL:BSCA:1,2019-05-02T04:30:00Z,30.3288,-87.8293,0.0,25.1,11111222 
DISL,ioos:station:DISL:BSCA:1,2019-05-02T05:30:00Z,30.3288,-87.8293,0.0,24.94,11111222 
DISL,ioos:station:DISL:BSCA:1,2019-05-02T06:30:00Z,30.3288,-87.8293,0.0,24.81,11111222 
DISL,ioos:station:DISL:BSCA:1,2019-05-02T07:30:00Z,30.3288,-87.8293,0.0,25.03,11111222 
DISL,ioos:station:DISL:BSCA:1,2019-05-02T08:30:00Z,30.3288,-87.8293,0.0,24.78,11111222 
DISL,ioos:station:DISL:BSCA:1,2019-05-02T09:30:00Z,30.3288,-87.8293,0.0,24.47,11111222 
DISL,ioos:station:DISL:BSCA:1,2019-05-02T10:30:00Z,30.3288,-87.8293,0.0,24.38,11111222 
DISL,ioos:station:DISL:BSCA:1,2019-05-02T11:30:00Z,30.3288,-87.8293,0.0,24.09,11111222 
DISL,ioos:station:DISL:BSCA:1,2019-05-02T12:30:00Z,30.3288,-87.8293,0.0,23.78,11111222 
DISL,ioos:station:DISL:BSCA:1,2019-05-02T13:30:00Z,30.3288,-87.8293,0.0,23.81,11111222 
DISL,ioos:station:DISL:BSCA:1,2019-05-02T14:30:00Z,30.3288,-87.8293,0.0,24.47,11111222 
DISL,ioos:station:DISL:BSCA:1,2019-05-02T15:30:00Z,30.3288,-87.8293,0.0,24.82,11111222 
DISL,ioos:station:DISL:BSCA:1,2019-05-02T16:30:00Z,30.3288,-87.8293,0.0,24.8,11111222 
DISL,ioos:station:DISL:BSCA:1,2019-05-02T17:30:00Z,30.3288,-87.8293,0.0,24.49,11111222 
DISL,ioos:station:DISL:BSCA:1,2019-05-02T18:30:00Z,30.3288,-87.8293,0.0,24.47,11111222 
DISL,ioos:station:DISL:BSCA:1,2019-05-02T19:30:00Z,30.3288,-87.8293,0.0,25.22,11111222 
DISL,ioos:station:DISL:BSCA:1,2019-05-02T20:30:00Z,30.3288,-87.8293,0.0,25.41,11111222 
DISL,ioos:station:DISL:BSCA:1,2019-05-02T21:30:00Z,30.3288,-87.8293,0.0,25.97,11111222 
DISL,ioos:station:DISL:BSCA:1,2019-05-02T22:30:00Z,30.3288,-87.8293,0.0,26.35,11111222 
DISL,ioos:station:DISL:BSCA:1,2019-05-02T23:30:00Z,30.3288,-87.8293,0.0,26.31,11111222 
DISL,ioos:station:DISL:BSCA:1,2019-05-03T00:30:00Z,30.3288,-87.8293,0.0,25.34,11111222 
DISL,ioos:station:DISL:BSCA:1,2019-05-03T01:30:00Z,30.3288,-87.8293,0.0,25.22,11111222 
DISL,ioos:station:DISL:BSCA:1,2019-05-03T02:30:00Z,30.3288,-87.8293,0.0,25.26,11111222 
DISL,ioos:station:DISL:BSCA:1,2019-05-03T03:30:00Z,30.3288,-87.8293,0.0,25.42,11111222 
DISL,ioos:station:DISL:BSCA:1,2019-05-03T04:30:00Z,30.3288,-87.8293,0.0,25.11,11111222 
DISL,ioos:station:DISL:BSCA:1,2019-05-03T05:30:00Z,30.3288,-87.8293,0.0,24.74,11111222 
DISL,ioos:station:DISL:BSCA:1,2019-05-03T06:30:00Z,30.3288,-87.8293,0.0,25.32,11111222 
DISL,ioos:station:DISL:BSCA:1,2019-05-03T07:30:00Z,30.3288,-87.8293,0.0,26.02,11111222 
DISL,ioos:station:DISL:BSCA:1,2019-05-03T08:30:00Z,30.3288,-87.8293,0.0,25.81,11111222 
DISL,ioos:station:DISL:BSCA:1,2019-05-03T09:30:00Z,30.3288,-87.8293,0.0,24.91,11111222 
DISL,ioos:station:DISL:BSCA:1,2019-05-03T10:30:00Z,30.3288,-87.8293,0.0,24.79,11111222 
DISL,ioos:station:DISL:BSCA:1,2019-05-03T11:30:00Z,30.3288,-87.8293,0.0,24.41,11111222 
DISL,ioos:station:DISL:BSCA:1,2019-05-03T12:30:00Z,30.3288,-87.8293,0.0,24.07,11111222 
DISL,ioos:station:DISL:BSCA:1,2019-05-03T13:30:00Z,30.3288,-87.8293,0.0,23.92,11111222 
DISL,ioos:station:DISL:BSCA:1,2019-05-03T14:30:00Z,30.3288,-87.8293,0.0,23.78,11111222 
DISL,ioos:station:DISL:BSCA:1,2019-05-03T15:30:00Z,30.3288,-87.8293,0.0,23.82,11111222 
DISL,ioos:station:DISL:BSCA:1,2019-05-03T16:30:00Z,30.3288,-87.8293,0.0,23.75,11111222 
DISL,ioos:station:DISL:BSCA:1,2019-05-03T17:30:00Z,30.3288,-87.8293,0.0,23.81,11111222 
DISL,ioos:station:DISL:BSCA:1,2019-05-03T18:30:00Z,30.3288,-87.8293,0.0,23.92,11111222 
DISL,ioos:station:DISL:BSCA:1,2019-05-03T19:30:00Z,30.3288,-87.8293,0.0,23.96,11111222 
DISL,ioos:station:DISL:BSCA:1,2019-05-03T20:30:00Z,30.3288,-87.8293,0.0,25.86,11111222 
DISL,ioos:station:DISL:BSCA:1,2019-05-03T21:30:00Z,30.3288,-87.8293,0.0,26.59,11111222 
DISL,ioos:station:DISL:BSCA:1,2019-05-03T22:30:00Z,30.3288,-87.8293,0.0,26.64,11111222 
DISL,ioos:station:DISL:BSCA:1,2019-05-03T23:30:00Z,30.3288,-87.8293,0.0,26.62,11111222 
DISL,ioos:station:DISL:BSCA:1,2019-05-04T00:30:00Z,30.3288,-87.8293,0.0,26.67,11111222 
DISL,ioos:station:DISL:BSCA:1,2019-05-04T01:30:00Z,30.3288,-87.8293,0.0,26.58,11111222 
DISL,ioos:station:DISL:BSCA:1,2019-05-04T02:30:00Z,30.3288,-87.8293,0.0,26.49,11111222 
DISL,ioos:station:DISL:BSCA:1,2019-05-04T03:30:00Z,30.3288,-87.8293,0.0,26.46,11111222 
DISL,ioos:station:DISL:BSCA:1,2019-05-04T04:30:00Z,30.3288,-87.8293,0.0,26.31,11111222 
DISL,ioos:station:DISL:BSCA:1,2019-05-04T05:30:00Z,30.3288,-87.8293,0.0,26.22,11111222 
DISL,ioos:station:DISL:BSCA:1,2019-05-04T06:30:00Z,30.3288,-87.8293,0.0,26.08,11111222 
DISL,ioos:station:DISL:BSCA:1,2019-05-04T07:30:00Z,30.3288,-87.8293,0.0,25.99,11111222 
DISL,ioos:station:DISL:BSCA:1,2019-05-04T08:30:00Z,30.3288,-87.8293,0.0,25.92,11111222 
DISL,ioos:station:DISL:BSCA:1,2019-05-04T09:30:00Z,30.3288,-87.8293,0.0,25.86,11111222 
DISL,ioos:station:DISL:BSCA:1,2019-05-04T10:30:00Z,30.3288,-87.8293,0.0,25.82,11111222 
DISL,ioos:station:DISL:BSCA:1,2019-05-04T11:30:00Z,30.3288,-87.8293,0.0,25.75,11111222 
DISL,ioos:station:DISL:BSCA:1,2019-05-04T12:30:00Z,30.3288,-87.8293,0.0,25.73,11111222 
DISL,ioos:station:DISL:BSCA:1,2019-05-04T13:30:00Z,30.3288,-87.8293,0.0,25.78,11111222 
DISL,ioos:station:DISL:BSCA:1,2019-05-04T14:30:00Z,30.3288,-87.8293,0.0,25.77,11111222 
DISL,ioos:station:DISL:BSCA:1,2019-05-04T15:30:00Z,30.3288,-87.8293,0.0,25.81,11111222 
DISL,ioos:station:DISL:BSCA:1,2019-05-04T16:30:00Z,30.3288,-87.8293,0.0,25.88,11111222 
DISL,ioos:station:DISL:BSCA:1,2019-05-04T17:30:00Z,30.3288,-87.8293,0.0,25.98,11111222 
DISL,ioos:station:DISL:BSCA:1,2019-05-04T18:30:00Z,30.3288,-87.8293,0.0,26.04,11111222 
DISL,ioos:station:DISL:BSCA:1,2019-05-04T19:30:00Z,30.3288,-87.8293,0.0,26.03,11111222 
DISL,ioos:station:DISL:BSCA:1,2019-05-04T20:30:00Z,30.3288,-87.8293,0.0,25.87,11111222 
DISL,ioos:station:DISL:BSCA:1,2019-05-04T21:30:00Z,30.3288,-87.8293,0.0,25.8,11111222 
DISL,ioos:station:DISL:BSCA:1,2019-05-04T22:30:00Z,30.3288,-87.8293,0.0,25.83,11111222 
DISL,ioos:station:DISL:BSCA:1,2019-05-04T23:30:00Z,30.3288,-87.8293,0.0,25.76,11111222 
DISL,ioos:station:DISL:BSCA:1,2019-05-05T00:30:00Z,30.3288,-87.8293,0.0,25.65,11111222 
DISL,ioos:station:DISL:BSCA:1,2019-05-05T01:30:00Z,30.3288,-87.8293,0.0,25.45,11111222 
DISL,ioos:station:DISL:BSCA:1,2019-05-05T02:30:00Z,30.3288,-87.8293,0.0,25.47,11111222 
DISL,ioos:station:DISL:BSCA:1,2019-05-05T03:30:00Z,30.3288,-87.8293,0.0,25.38,11111222 
DISL,ioos:station:DISL:BSCA:1,2019-05-05T04:30:00Z,30.3288,-87.8293,0.0,25.12,11111222 
DISL,ioos:station:DISL:BSCA:1,2019-05-05T05:30:00Z,30.3288,-87.8293,0.0,25.07,11111222 
DISL,ioos:station:DISL:BSCA:1,2019-05-05T06:30:00Z,30.3288,-87.8293,0.0,24.99,11111222 
DISL,ioos:station:DISL:BSCA:1,2019-05-05T07:30:00Z,30.3288,-87.8293,0.0,24.92,11111222 
DISL,ioos:station:DISL:BSCA:1,2019-05-05T08:30:00Z,30.3288,-87.8293,0.0,24.82,11111222 
DISL,ioos:station:DISL:BSCA:1,2019-05-05T09:30:00Z,30.3288,-87.8293,0.0,24.7,11111222 
DISL,ioos:station:DISL:BSCA:1,2019-05-05T10:30:00Z,30.3288,-87.8293,0.0,24.67,11111222 
DISL,ioos:station:DISL:BSCA:1,2019-05-05T11:30:00Z,30.3288,-87.8293,0.0,24.56,11111222 
DISL,ioos:station:DISL:BSCA:1,2019-05-05T12:30:00Z,30.3288,-87.8293,0.0,24.67,11111222 
DISL,ioos:station:DISL:BSCA:1,2019-05-05T13:30:00Z,30.3288,-87.8293,0.0,24.69,11111222 
DISL,ioos:station:DISL:BSCA:1,2019-05-05T14:30:00Z,30.3288,-87.8293,0.0,24.72,11111222 
DISL,ioos:station:DISL:BSCA:1,2019-05-05T15:30:00Z,30.3288,-87.8293,0.0,24.86,11111222 
DISL,ioos:station:DISL:BSCA:1,2019-05-05T16:30:00Z,30.3288,-87.8293,0.0,24.84,11111222 
DISL,ioos:station:DISL:BSCA:1,2019-05-05T17:30:00Z,30.3288,-87.8293,0.0,24.92,11111222 
DISL,ioos:station:DISL:BSCA:1,2019-05-05T18:30:00Z,30.3288,-87.8293,0.0,25.04,11111222 
DISL,ioos:station:DISL:BSCA:1,2019-05-05T19:30:00Z,30.3288,-87.8293,0.0,25.07,11111222 
DISL,ioos:station:DISL:BSCA:1,2019-05-05T20:30:00Z,30.3288,-87.8293,0.0,25.21,11111222 
DISL,ioos:station:DISL:BSCA:1,2019-05-05T21:30:00Z,30.3288,-87.8293,0.0,25.47,11111222 
DISL,ioos:station:DISL:BSCA:1,2019-05-05T22:30:00Z,30.3288,-87.8293,0.0,25.63,11111222 
DISL,ioos:station:DISL:BSCA:1,2019-05-05T23:30:00Z,30.3288,-87.8293,0.0,25.89,11111222 
DISL,ioos:station:DISL:BSCA:1,2019-05-06T00:30:00Z,30.3288,-87.8293,0.0,25.92,11111222 
DISL,ioos:station:DISL:BSCA:1,2019-05-06T01:30:00Z,30.3288,-87.8293,0.0,25.9,11111222 
DISL,ioos:station:DISL:BSCA:1,2019-05-06T02:30:00Z,30.3288,-87.8293,0.0,25.82,11111222 
DISL,ioos:station:DISL:BSCA:1,2019-05-06T03:30:00Z,30.3288,-87.8293,0.0,25.63,11111222 
DISL,ioos:station:DISL:BSCA:1,2019-05-06T04:30:00Z,30.3288,-87.8293,0.0,25.5,11111222 
DISL,ioos:station:DISL:BSCA:1,2019-05-06T05:30:00Z,30.3288,-87.8293,0.0,25.27,11111222 
DISL,ioos:station:DISL:BSCA:1,2019-05-06T06:30:00Z,30.3288,-87.8293,0.0,25.23,11111222 
DISL,ioos:station:DISL:BSCA:1,2019-05-06T07:30:00Z,30.3288,-87.8293,0.0,25.07,11111222 
DISL,ioos:station:DISL:BSCA:1,2019-05-06T08:30:00Z,30.3288,-87.8293,0.0,24.98,11111222 
DISL,ioos:station:DISL:BSCA:1,2019-05-06T09:30:00Z,30.3288,-87.8293,0.0,24.77,11111222 
DISL,ioos:station:DISL:BSCA:1,2019-05-06T10:30:00Z,30.3288,-87.8293,0.0,24.68,11111222 
DISL,ioos:station:DISL:BSCA:1,2019-05-06T11:30:00Z,30.3288,-87.8293,0.0,24.54,11111222 
DISL,ioos:station:DISL:BSCA:1,2019-05-06T12:30:00Z,30.3288,-87.8293,0.0,24.39,11111222 
DISL,ioos:station:DISL:BSCA:1,2019-05-06T13:30:00Z,30.3288,-87.8293,0.0,24.39,11111222 
DISL,ioos:station:DISL:BSCA:1,2019-05-06T14:30:00Z,30.3288,-87.8293,0.0,24.4,11111222 
DISL,ioos:station:DISL:BSCA:1,2019-05-06T15:30:00Z,30.3288,-87.8293,0.0,24.41,11111222 
DISL,ioos:station:DISL:BSCA:1,2019-05-06T16:30:00Z,30.3288,-87.8293,0.0,24.4,11111222 
DISL,ioos:station:DISL:BSCA:1,2019-05-06T17:30:00Z,30.3288,-87.8293,0.0,24.4,11111222 
DISL,ioos:station:DISL:BSCA:1,2019-05-06T18:30:00Z,30.3288,-87.8293,0.0,24.4,11111222 
DISL,ioos:station:DISL:BSCA:1,2019-05-06T19:30:00Z,30.3288,-87.8293,0.0,24.46,11111222 
DISL,ioos:station:DISL:BSCA:1,2019-05-06T20:30:00Z,30.3288,-87.8293,0.0,24.59,11111222 
DISL,ioos:station:DISL:BSCA:1,2019-05-06T21:30:00Z,30.3288,-87.8293,0.0,24.99,11111222 
DISL,ioos:station:DISL:BSCA:1,2019-05-06T22:30:00Z,30.3288,-87.8293,0.0,24.85,11111222 
DISL,ioos:station:DISL:BSCA:1,2019-05-06T23:30:00Z,30.3288,-87.8293,0.0,25.44,11111222 
DISL,ioos:station:DISL:BSCA:1,2019-05-07T00:30:00Z,30.3288,-87.8293,0.0,26.58,11111222 
DISL,ioos:station:DISL:BSCA:1,2019-05-07T01:30:00Z,30.3288,-87.8293,0.0,26.45,11111222 
DISL,ioos:station:DISL:BSCA:1,2019-05-07T02:30:00Z,30.3288,-87.8293,0.0,26.69,11111222 
DISL,ioos:station:DISL:BSCA:1,2019-05-07T03:30:00Z,30.3288,-87.8293,0.0,26.69,11111222 
DISL,ioos:station:DISL:BSCA:1,2019-05-07T04:30:00Z,30.3288,-87.8293,0.0,26.37,11111222 
DISL,ioos:station:DISL:BSCA:1,2019-05-07T05:30:00Z,30.3288,-87.8293,0.0,26.04,11111222 
DISL,ioos:station:DISL:BSCA:1,2019-05-07T06:30:00Z,30.3288,-87.8293,0.0,25.68,11111222 
DISL,ioos:station:DISL:BSCA:1,2019-05-07T07:30:00Z,30.3288,-87.8293,0.0,25.53,11111222 
DISL,ioos:station:DISL:BSCA:1,2019-05-07T08:30:00Z,30.3288,-87.8293,0.0,25.34,11111222 
DISL,ioos:station:DISL:BSCA:1,2019-05-07T09:30:00Z,30.3288,-87.8293,0.0,25.1,11111222 
DISL,ioos:station:DISL:BSCA:1,2019-05-07T10:30:00Z,30.3288,-87.8293,0.0,24.9,11111222 
DISL,ioos:station:DISL:BSCA:1,2019-05-07T11:30:00Z,30.3288,-87.8293,0.0,24.94,11111222 
DISL,ioos:station:DISL:BSCA:1,2019-05-07T12:30:00Z,30.3288,-87.8293,0.0,24.88,11111222 
DISL,ioos:station:DISL:BSCA:1,2019-05-07T13:30:00Z,30.3288,-87.8293,0.0,24.88,11111222 
DISL,ioos:station:DISL:BSCA:1,2019-05-07T14:30:00Z,30.3288,-87.8293,0.0,24.89,11111222 
DISL,ioos:station:DISL:BSCA:1,2019-05-07T15:30:00Z,30.3288,-87.8293,0.0,24.87,11111222 
DISL,ioos:station:DISL:BSCA:1,2019-05-07T16:30:00Z,30.3288,-87.8293,0.0,24.94,11111222 
DISL,ioos:station:DISL:BSCA:1,2019-05-07T17:30:00Z,30.3288,-87.8293,0.0,24.88,11111222 
DISL,ioos:station:DISL:BSCA:1,2019-05-07T18:30:00Z,30.3288,-87.8293,0.0,25.12,11111222 
DISL,ioos:station:DISL:BSCA:1,2019-05-07T19:30:00Z,30.3288,-87.8293,0.0,25.28,11111222 
DISL,ioos:station:DISL:BSCA:1,2019-05-07T20:30:00Z,30.3288,-87.8293,0.0,25.54,11111222 
DISL,ioos:station:DISL:BSCA:1,2019-05-07T21:30:00Z,30.3288,-87.8293,0.0,26.2,11111222 
DISL,ioos:station:DISL:BSCA:1,2019-05-07T22:30:00Z,30.3288,-87.8293,0.0,26.4,11111222 
DISL,ioos:station:DISL:BSCA:1,2019-05-07T23:30:00Z,30.3288,-87.8293,0.0,26.4,11111222 
DISL,ioos:station:DISL:BSCA:1,2019-05-08T00:30:00Z,30.3288,-87.8293,0.0,26.35,11111222 
DISL,ioos:station:DISL:BSCA:1,2019-05-08T01:30:00Z,30.3288,-87.8293,0.0,26.29,11111222 
DISL,ioos:station:DISL:BSCA:1,2019-05-08T02:30:00Z,30.3288,-87.8293,0.0,26.22,11111222 
DISL,ioos:station:DISL:BSCA:1,2019-05-08T03:30:00Z,30.3288,-87.8293,0.0,26.16,11111222 
DISL,ioos:station:DISL:BSCA:1,2019-05-08T04:30:00Z,30.3288,-87.8293,0.0,26.09,11111222 
DISL,ioos:station:DISL:BSCA:1,2019-05-08T05:30:00Z,30.3288,-87.8293,0.0,26.01,11111222 
DISL,ioos:station:DISL:BSCA:1,2019-05-08T06:30:00Z,30.3288,-87.8293,0.0,26.0,11111222 
DISL,ioos:station:DISL:BSCA:1,2019-05-08T07:30:00Z,30.3288,-87.8293,0.0,25.94,11111222 
DISL,ioos:station:DISL:BSCA:1,2019-05-08T08:30:00Z,30.3288,-87.8293,0.0,25.79,11111222 
DISL,ioos:station:DISL:BSCA:1,2019-05-08T09:30:00Z,30.3288,-87.8293,0.0,25.77,11111222 
DISL,ioos:station:DISL:BSCA:1,2019-05-08T10:30:00Z,30.3288,-87.8293,0.0,25.71,11111222 
DISL,ioos:station:DISL:BSCA:1,2019-05-08T11:30:00Z,30.3288,-87.8293,0.0,25.56,11111222 
DISL,ioos:station:DISL:BSCA:1,2019-05-08T12:30:00Z,30.3288,-87.8293,0.0,25.31,11111222 
DISL,ioos:station:DISL:BSCA:1,2019-05-08T13:30:00Z,30.3288,-87.8293,0.0,25.18,11111222 
DISL,ioos:station:DISL:BSCA:1,2019-05-08T14:30:00Z,30.3288,-87.8293,0.0,25.21,11111222 
DISL,ioos:station:DISL:BSCA:1,2019-05-08T15:30:00Z,30.3288,-87.8293,0.0,25.3,11111222 
DISL,ioos:station:DISL:BSCA:1,2019-05-08T16:30:00Z,30.3288,-87.8293,0.0,25.26,11111222 
DISL,ioos:station:DISL:BSCA:1,2019-05-08T17:30:00Z,30.3288,-87.8293,0.0,25.32,11111222 
DISL,ioos:station:DISL:BSCA:1,2019-05-08T18:30:00Z,30.3288,-87.8293,0.0,25.36,11111222 
DISL,ioos:station:DISL:BSCA:1,2019-05-08T19:30:00Z,30.3288,-87.8293,0.0,25.48,11111222 
DISL,ioos:station:DISL:BSCA:1,2019-05-08T20:30:00Z,30.3288,-87.8293,0.0,25.61,11111222 
DISL,ioos:station:DISL:BSCA:1,2019-05-08T21:30:00Z,30.3288,-87.8293,0.0,25.63,11111222 
DISL,ioos:station:DISL:BSCA:1,2019-05-08T22:30:00Z,30.3288,-87.8293,0.0,25.71,11111222 
DISL,ioos:station:DISL:BSCA:1,2019-05-08T23:30:00Z,30.3288,-87.8293,0.0,25.67,11111222 
DISL,ioos:station:DISL:BSCA:1,2019-05-09T00:30:00Z,30.3288,-87.8293,0.0,25.69,11111222 
DISL,ioos:station:DISL:BSCA:1,2019-05-09T01:30:00Z,30.3288,-87.8293,0.0,25.62,11111222 
DISL,ioos:station:DISL:BSCA:1,2019-05-09T02:30:00Z,30.3288,-87.8293,0.0,25.53,11111222 
DISL,ioos:station:DISL:BSCA:1,2019-05-09T03:30:00Z,30.3288,-87.8293,0.0,25.44,11111222 
DISL,ioos:station:DISL:BSCA:1,2019-05-09T04:30:00Z,30.3288,-87.8293,0.0,25.39,11111222 
DISL,ioos:station:DISL:BSCA:1,2019-05-09T05:30:00Z,30.3288,-87.8293,0.0,25.34,11111222 
DISL,ioos:station:DISL:BSCA:1,2019-05-09T06:30:00Z,30.3288,-87.8293,0.0,25.25,11111222 
DISL,ioos:station:DISL:BSCA:1,2019-05-09T07:30:00Z,30.3288,-87.8293,0.0,25.2,11111222 
DISL,ioos:station:DISL:BSCA:1,2019-05-09T08:30:00Z,30.3288,-87.8293,0.0,25.28,11111222 
DISL,ioos:station:DISL:BSCA:1,2019-05-09T09:30:00Z,30.3288,-87.8293,0.0,25.29,11111222 
DISL,ioos:station:DISL:BSCA:1,2019-05-09T10:30:00Z,30.3288,-87.8293,0.0,25.22,11111222 
DISL,ioos:station:DISL:BSCA:1,2019-05-09T11:30:00Z,30.3288,-87.8293,0.0,25.16,11111222 
DISL,ioos:station:DISL:BSCA:1,2019-05-09T12:30:00Z,30.3288,-87.8293,0.0,25.06,11111222 
DISL,ioos:station:DISL:BSCA:1,2019-05-09T13:30:00Z,30.3288,-87.8293,0.0,25.08,11111222 
DISL,ioos:station:DISL:BSCA:1,2019-05-09T14:30:00Z,30.3288,-87.8293,0.0,25.17,11111222 
DISL,ioos:station:DISL:BSCA:1,2019-05-09T15:30:00Z,30.3288,-87.8293,0.0,25.24,11111222 
DISL,ioos:station:DISL:BSCA:1,2019-05-09T16:30:00Z,30.3288,-87.8293,0.0,25.36,11111222 
DISL,ioos:station:DISL:BSCA:1,2019-05-09T17:30:00Z,30.3288,-87.8293,0.0,25.49,11111222 
DISL,ioos:station:DISL:BSCA:1,2019-05-09T18:30:00Z,30.3288,-87.8293,0.0,25.64,11111222 
DISL,ioos:station:DISL:BSCA:1,2019-05-09T19:30:00Z,30.3288,-87.8293,0.0,25.7,11111222 
DISL,ioos:station:DISL:BSCA:1,2019-05-09T20:30:00Z,30.3288,-87.8293,0.0,25.75,11111222 
DISL,ioos:station:DISL:BSCA:1,2019-05-09T21:30:00Z,30.3288,-87.8293,0.0,25.77,11111222 
DISL,ioos:station:DISL:BSCA:1,2019-05-09T22:30:00Z,30.3288,-87.8293,0.0,25.82,11111222 
DISL,ioos:station:DISL:BSCA:1,2019-05-09T23:30:00Z,30.3288,-87.8293,0.0,25.69,11111222 
DISL,ioos:station:DISL:BSCA:1,2019-05-10T00:30:00Z,30.3288,-87.8293,0.0,25.66,11111222 
DISL,ioos:station:DISL:BSCA:1,2019-05-10T01:30:00Z,30.3288,-87.8293,0.0,25.72,11111222 
DISL,ioos:station:DISL:BSCA:1,2019-05-10T02:30:00Z,30.3288,-87.8293,0.0,25.75,11111222 
DISL,ioos:station:DISL:BSCA:1,2019-05-10T03:30:00Z,30.3288,-87.8293,0.0,25.59,11111222 
DISL,ioos:station:DISL:BSCA:1,2019-05-10T04:30:00Z,30.3288,-87.8293,0.0,25.46,11111222 
DISL,ioos:station:DISL:BSCA:1,2019-05-10T06:00:00Z,30.3288,-87.8293,0.0,25.29,11111222 
DISL,ioos:station:DISL:BSCA:1,2019-05-10T06:30:00Z,30.3288,-87.8293,0.0,25.21,11111222 
DISL,ioos:station:DISL:BSCA:1,2019-05-10T07:30:00Z,30.3288,-87.8293,0.0,25.14,11111222 
DISL,ioos:station:DISL:BSCA:1,2019-05-10T08:30:00Z,30.3288,-87.8293,0.0,24.97,11111222 
DISL,ioos:station:DISL:BSCA:1,2019-05-10T09:30:00Z,30.3288,-87.8293,0.0,24.94,11111222 
DISL,ioos:station:DISL:BSCA:1,2019-05-10T10:30:00Z,30.3288,-87.8293,0.0,24.89,11111222 
DISL,ioos:station:DISL:BSCA:1,2019-05-10T11:30:00Z,30.3288,-87.8293,0.0,24.82,11111222 
DISL,ioos:station:DISL:BSCA:1,2019-05-10T12:30:00Z,30.3288,-87.8293,0.0,24.78,11111222 
DISL,ioos:station:DISL:BSCA:1,2019-05-10T13:30:00Z,30.3288,-87.8293,0.0,24.77,11111222 
DISL,ioos:station:DISL:BSCA:1,2019-05-10T14:30:00Z,30.3288,-87.8293,0.0,24.7,11111222 
DISL,ioos:station:DISL:BSCA:1,2019-05-10T15:30:00Z,30.3288,-87.8293,0.0,24.7,11111222 
DISL,ioos:station:DISL:BSCA:1,2019-05-10T16:30:00Z,30.3288,-87.8293,0.0,24.67,11111222 
DISL,ioos:station:DISL:BSCA:1,2019-05-10T17:30:00Z,30.3288,-87.8293,0.0,24.64,11111222 
DISL,ioos:station:DISL:BSCA:1,2019-05-10T18:30:00Z,30.3288,-87.8293,0.0,24.6,11111222 
DISL,ioos:station:DISL:BSCA:1,2019-05-10T19:30:00Z,30.3288,-87.8293,0.0,24.55,11111222 
DISL,ioos:station:DISL:BSCA:1,2019-05-10T20:30:00Z,30.3288,-87.8293,0.0,25.04,11111222 
DISL,ioos:station:DISL:BSCA:1,2019-05-10T21:30:00Z,30.3288,-87.8293,0.0,25.16,11111222 
DISL,ioos:station:DISL:BSCA:1,2019-05-10T22:30:00Z,30.3288,-87.8293,0.0,24.63,11111222 
DISL,ioos:station:DISL:BSCA:1,2019-05-10T23:30:00Z,30.3288,-87.8293,0.0,24.65,11111222 
DISL,ioos:station:DISL:BSCA:1,2019-05-11T00:30:00Z,30.3288,-87.8293,0.0,24.79,11111222 
DISL,ioos:station:DISL:BSCA:1,2019-05-11T01:30:00Z,30.3288,-87.8293,0.0,25.0,11111222 
DISL,ioos:station:DISL:BSCA:1,2019-05-11T02:30:00Z,30.3288,-87.8293,0.0,24.96,11111222 
DISL,ioos:station:DISL:BSCA:1,2019-05-11T03:30:00Z,30.3288,-87.8293,0.0,25.04,11111222 
DISL,ioos:station:DISL:BSCA:1,2019-05-11T04:30:00Z,30.3288,-87.8293,0.0,25.07,11111222 
DISL,ioos:station:DISL:BSCA:1,2019-05-11T05:30:00Z,30.3288,-87.8293,0.0,25.2,11111222 
DISL,ioos:station:DISL:BSCA:1,2019-05-11T06:30:00Z,30.3288,-87.8293,0.0,25.09,11111222 
DISL,ioos:station:DISL:BSCA:1,2019-05-11T07:30:00Z,30.3288,-87.8293,0.0,25.08,11111222 
DISL,ioos:station:DISL:BSCA:1,2019-05-11T08:30:00Z,30.3288,-87.8293,0.0,24.88,11111222 
DISL,ioos:station:DISL:BSCA:1,2019-05-11T09:30:00Z,30.3288,-87.8293,0.0,24.8,11111222 
DISL,ioos:station:DISL:BSCA:1,2019-05-11T10:30:00Z,30.3288,-87.8293,0.0,24.81,11111222 
DISL,ioos:station:DISL:BSCA:1,2019-05-11T11:30:00Z,30.3288,-87.8293,0.0,24.86,11111222 
DISL,ioos:station:DISL:BSCA:1,2019-05-11T12:30:00Z,30.3288,-87.8293,0.0,24.77,11111222 
DISL,ioos:station:DISL:BSCA:1,2019-05-13T13:30:00Z,30.3288,-87.8293,0.0,25.16,11111222 
DISL,ioos:station:DISL:BSCA:1,2019-05-13T14:30:00Z,30.3288,-87.8293,0.0,25.2,11111222 
DISL,ioos:station:DISL:BSCA:1,2019-05-13T15:30:00Z,30.3288,-87.8293,0.0,25.27,11111222 
DISL,ioos:station:DISL:BSCA:1,2019-05-13T16:30:00Z,30.3288,-87.8293,0.0,25.35,11111222 
DISL,ioos:station:DISL:BSCA:1,2019-05-13T17:30:00Z,30.3288,-87.8293,0.0,25.41,11111222 
DISL,ioos:station:DISL:BSCA:1,2019-05-13T18:30:00Z,30.3288,-87.8293,0.0,25.51,11111222 
DISL,ioos:station:DISL:BSCA:1,2019-05-13T19:30:00Z,30.3288,-87.8293,0.0,25.37,11111222 
DISL,ioos:station:DISL:BSCA:1,2019-05-13T20:30:00Z,30.3288,-87.8293,0.0,25.49,11111222 
DISL,ioos:station:DISL:BSCA:1,2019-05-13T21:30:00Z,30.3288,-87.8293,0.0,25.84,11111222 
DISL,ioos:station:DISL:BSCA:1,2019-05-13T22:30:00Z,30.3288,-87.8293,0.0,26.34,11111222 
DISL,ioos:station:DISL:BSCA:1,2019-05-13T23:30:00Z,30.3288,-87.8293,0.0,26.26,11111222 
DISL,ioos:station:DISL:BSCA:1,2019-05-14T00:30:00Z,30.3288,-87.8293,0.0,26.26,11111222 
DISL,ioos:station:DISL:BSCA:1,2019-05-14T01:30:00Z,30.3288,-87.8293,0.0,26.16,11111222 
DISL,ioos:station:DISL:BSCA:1,2019-05-14T02:30:00Z,30.3288,-87.8293,0.0,26.14,11111222 
DISL,ioos:station:DISL:BSCA:1,2019-05-14T03:30:00Z,30.3288,-87.8293,0.0,26.12,11111222 
DISL,ioos:station:DISL:BSCA:1,2019-05-14T04:30:00Z,30.3288,-87.8293,0.0,26.05,11111222 
DISL,ioos:station:DISL:BSCA:1,2019-05-14T05:30:00Z,30.3288,-87.8293,0.0,25.95,11111222 
DISL,ioos:station:DISL:BSCA:1,2019-05-14T06:30:00Z,30.3288,-87.8293,0.0,25.84,11111222 
DISL,ioos:station:DISL:BSCA:1,2019-05-14T07:30:00Z,30.3288,-87.8293,0.0,25.68,11111222 